timestamp,wind_vec_avg,wind_scalar_avg,wind_dir,wind_dir_sd,t,tmax,time_tmax,tmin,time_tmin,tdew_avg,tdew_max,time_tdew_max,tdew_min,time_tdew_min,rad_tot,rain1,rain2
2020-01-01 03:29:00+00:00,15.34,15.34,16.43,43.46,-1.048,2.261,1353.0,-3.762,802.0,-4.074,-2.277,2358.0,-5.502,1756.0,4.6271,0.0,0.0
2020-01-01 03:30:00+00:00,15.34,15.34,16.43,43.46,-1.048,2.261,1353.0,-3.762,802.0,-4.074,-2.277,2358.0,-5.502,1756.0,4.6271,0.0,0.0
2020-01-02 03:30:00+00:00,37.66,37.66,150.3,53.15,1.774,3.702,1535.0,0.389,537.0,0.951,3.705,1535.0,-3.997,142.0,0.51475,15.6,15.2
2020-01-03 03:30:00+00:00,24.55,24.55,247.5,24.48,1.118,3.165,231.0,-0.719,1610.0,-0.974,3.167,231.0,-4.073,1519.0,1.297,0.4,0.4
2020-01-04 03:30:00+00:00,22.95,22.95,272.4,14.72,0.094,1.262,1330.0,-1.117,148.0,-2.355,-0.797,1619.0,-3.834,246.0,1.3917,0.0,0.2
2020-01-05 03:30:00+00:00,10.61,10.61,252.1,28.81,1.883,3.833,1340.0,0.457,1.0,1.03,2.768,1202.0,-1.345,101.0,1.2559,0.0,0.0
2020-01-06 03:30:00+00:00,29.22,29.22,77.2,67.89,0.49,1.86,1019.0,-1.921,2257.0,-0.131,1.178,1136.0,-1.922,2257.0,0.32556,1.5,13.5
2020-01-07 03:30:00+00:00,17.33,17.33,341.3,31.98,-2.559,-0.42,1422.0,-4.564,2357.0,-2.56,-0.42,1422.0,-4.566,2357.0,4.4501,6.4,12.2
2020-01-08 03:30:00+00:00,10.42,10.42,283.4,73.9,-2.857,-0.036,959.0,-6.706,629.0,-3.342,-0.036,959.0,-6.86,629.0,4.2249,2.0,1.1
2020-01-09 03:30:00+00:00,29.85,29.85,93.4,80.1,-0.512,4.209,2108.0,-5.603,501.0,-0.837,4.213,2108.0,-5.721,501.0,0.84272,3.8,3.6
2020-01-10 03:30:00+00:00,33.15,33.15,298.4,21.91,-2.242,0.826,735.0,-8.01,2348.0,-3.972,0.692,429.0,-12.15,2357.0,2.6118,3.6,5.0
2020-01-11 03:30:00+00:00,25.08,25.08,281.8,38.65,-5.275,0.994,2358.0,-9.79,400.0,-9.31,0.481,2359.0,-14.5,450.0,4.2639,0.0,0.2
2020-01-12 03:30:00+00:00,25.41,25.41,240.6,33.46,2.279,5.914,2202.0,0.86,7.0,1.838,5.919,2202.0,-0.221,743.0,2.4214,9.4,8.4
2020-01-13 03:30:00+00:00,23.55,23.55,344.7,59.15,-1.564,5.47,28.0,-7.48,2136.0,-2.859,5.474,28.0,-8.49,2303.0,1.3749,0.9,2.2
2020-01-14 03:30:00+00:00,17.54,17.54,348.2,23.38,-6.897,-3.035,1422.0,-12.5,2257.0,-11.21,-6.2,322.0,-15.18,1910.0,5.9899,0.0,0.0
2020-01-15 03:30:00+00:00,9.87,9.87,338.4,16.92,-8.1,-3.332,1210.0,-12.4,2256.0,-12.37,-9.13,447.0,-15.3,2150.0,5.8449,0.0,0.0
2020-01-16 03:30:00+00:00,6.788,6.788,7.84,38.97,-7.52,-3.453,1315.0,-13.37,230.0,-9.5,-5.7,2208.0,-16.18,155.0,2.5552,0.0,0.2
2020-01-17 03:30:00+00:00,9.52,9.52,72.6,63.05,-4.5,1.257,1244.0,-10.16,435.0,-7.41,-5.098,2128.0,-11.12,435.0,4.8572,2.0,0.0
2020-01-18 03:30:00+00:00,58.3,58.3,11.23,31.44,-6.417,-2.62,1.0,-12.04,2212.0,-7.13,-4.396,839.0,-12.84,2212.0,0.57585,3.7,77.0
2020-01-19 03:30:00+00:00,26.2,26.2,316.0,18.09,-9.7,-6.276,1215.0,-12.53,2218.0,-10.56,-6.992,1216.0,-13.64,2218.0,5.7712,0.0,0.2
2020-01-20 03:30:00+00:00,26.51,26.51,67.86,63.5,-7.22,2.606,2347.0,-14.41,213.0,-7.78,2.608,2347.0,-15.6,219.0,2.6129,0.0,4.2
2020-01-21 03:30:00+00:00,20.09,20.09,303.6,56.27,-1.301,2.538,3.0,-5.972,2359.0,-2.634,2.541,3.0,-8.25,2359.0,3.5297,0.2,0.2
2020-01-22 03:30:00+00:00,14.65,14.65,293.8,30.78,-5.514,-2.378,1012.0,-7.61,422.0,-9.72,-4.992,642.0,-13.38,1825.0,3.7255,0.0,0.0
2020-01-23 03:30:00+00:00,14.74,14.74,39.51,25.21,-7.71,-5.964,907.0,-11.36,2353.0,-12.22,-10.23,1231.0,-16.89,2056.0,2.7699,0.0,0.0
2020-01-24 03:30:00+00:00,17.0,17.0,295.1,61.81,-4.413,0.692,2342.0,-11.16,0.0,-7.26,-0.22,2342.0,-13.63,455.0,3.8949,0.1,0.0
2020-01-25 03:30:00+00:00,18.51,18.51,293.9,33.57,-0.797,4.175,1042.0,-7.67,2254.0,-3.976,0.142,209.0,-11.4,2359.0,6.5104,0.0,0.0
2020-01-26 03:30:00+00:00,7.94,7.94,328.3,34.85,-5.823,0.982,1256.0,-12.43,701.0,-10.16,-6.734,1444.0,-14.35,649.0,7.0408,0.0,0.0
2020-01-27 03:30:00+00:00,11.35,11.35,160.5,81.6,-2.094,3.186,1013.0,-8.31,316.0,-3.728,1.356,2359.0,-9.24,316.0,6.3643,0.0,0.0
2020-01-28 03:30:00+00:00,22.0,22.0,223.9,68.99,1.9,3.934,806.0,0.255,2357.0,1.852,3.937,806.0,0.244,2357.0,2.3287,4.8,4.3
2020-01-29 03:30:00+00:00,12.64,12.64,36.83,42.99,-0.366,0.624,25.0,-2.289,2328.0,-0.9,0.625,42.0,-2.872,2325.0,2.6432,0.9,0.6
2020-01-30 03:30:00+00:00,18.98,18.98,14.24,10.98,-1.8,-0.513,1225.0,-2.821,2356.0,-3.156,-1.618,59.0,-4.404,1311.0,3.8194,0.0,0.0
2020-01-31 03:30:00+00:00,24.15,24.15,10.47,15.84,-2.834,-1.652,1609.0,-6.001,2359.0,-4.141,-2.348,1446.0,-7.93,2359.0,3.3484,0.0,0.3
2020-02-01 03:30:00+00:00,18.19,18.19,304.5,21.34,-4.472,0.128,1218.0,-8.24,535.0,-7.98,-5.141,1406.0,-11.2,2327.0,3.3563,0.0,0.1
2020-02-02 03:30:00+00:00,12.51,12.51,51.79,99.1,-4.049,-1.188,1301.0,-7.41,748.0,-9.55,-4.154,2353.0,-12.96,1117.0,6.8361,0.1,0.0
2020-02-03 03:30:00+00:00,37.91,37.91,158.9,60.52,0.13,3.572,1354.0,-1.82,147.0,-0.318,3.575,1354.0,-4.759,35.0,1.1524,1.3,8.0
2020-02-04 03:30:00+00:00,32.94,32.94,262.2,12.13,-1.58,-0.651,1223.0,-2.189,2015.0,-5.661,-4.571,1613.0,-7.3,1909.0,1.3041,0.1,0.0
2020-02-05 03:30:00+00:00,27.06,27.06,282.4,12.55,-1.057,1.9,1108.0,-2.055,1754.0,-5.309,-3.497,1203.0,-6.955,9.0,5.677,0.0,0.0
2020-02-06 03:30:00+00:00,26.56,26.56,265.5,31.15,-1.703,0.826,1414.0,-4.595,2338.0,-5.055,0.421,1140.0,-10.48,1846.0,3.9805,0.3,0.3
2020-02-07 03:30:00+00:00,23.97,23.97,263.0,35.0,-3.541,-1.713,1256.0,-5.603,600.0,-7.54,-2.335,2347.0,-11.17,33.0,3.3511,0.0,0.0
2020-02-08 03:30:00+00:00,7.69,7.69,77.1,37.75,-0.577,6.164,2341.0,-2.552,0.0,-0.766,6.169,2341.0,-2.872,0.0,1.9034,0.8,11.3
2020-02-09 03:30:00+00:00,44.5,44.5,262.5,22.92,-1.355,5.343,330.0,-4.696,1958.0,-4.741,3.112,330.0,-9.73,2330.0,3.1007,0.0,2.9
2020-02-10 03:30:00+00:00,24.61,24.61,278.9,18.07,-4.656,-2.009,950.0,-5.934,1950.0,-9.48,-4.853,44.0,-12.64,602.0,4.9795,0.0,0.2
2020-02-11 03:30:00+00:00,34.9,34.9,145.9,4.611,-0.215,-0.146,2356.0,-0.281,2351.0,-0.215,-0.146,2356.0,-0.28,2351.0,0.0,0.0,0.0
2020-02-12 03:30:00+00:00,17.79,17.79,281.1,59.26,-0.011,3.029,1258.0,-3.123,2040.0,-1.858,1.768,232.0,-4.463,1906.0,6.8783,2.5,1.9
2020-02-13 03:30:00+00:00,28.19,28.19,0.039,72.4,-1.633,-0.211,635.0,-4.662,2335.0,-2.781,-0.211,635.0,-7.76,2052.0,3.5855,0.5,1.5
2020-02-14 03:30:00+00:00,29.93,29.93,254.0,27.42,-0.842,1.027,1216.0,-4.595,0.0,-2.284,0.457,1416.0,-7.49,0.0,2.8103,0.5,0.9
2020-02-15 03:30:00+00:00,25.29,25.29,304.0,14.9,-8.62,-2.122,0.0,-11.9,2332.0,-11.7,-2.603,0.0,-16.42,2341.0,5.3516,0.0,0.1
2020-02-16 03:30:00+00:00,27.49,27.49,293.8,26.64,-7.82,-4.43,1356.0,-12.77,647.0,-13.59,-9.75,1354.0,-18.2,725.0,8.1793,0.0,0.0
2020-02-17 03:30:00+00:00,35.22,35.22,239.0,13.97,-1.261,0.624,2047.0,-5.463,0.0,-4.378,0.491,2355.0,-11.58,117.0,3.6157,0.0,0.0
2020-02-18 03:30:00+00:00,11.83,11.83,266.4,67.74,-0.31,1.362,1434.0,-4.769,2356.0,-0.406,1.363,1434.0,-5.165,2356.0,2.5069,7.0,6.3
2020-02-19 03:30:00+00:00,16.8,16.8,307.7,22.71,-5.941,-1.103,127.0,-11.3,2136.0,-10.41,-1.612,127.0,-15.0,2022.0,11.749,0.0,0.0
2020-02-20 03:30:00+00:00,36.01,36.01,207.7,55.14,-0.315,3.941,1233.0,-8.48,0.0,-1.795,3.945,1233.0,-11.74,11.0,0.95631,7.9,15.8
2020-02-21 03:30:00+00:00,38.94,38.94,270.4,10.16,-7.12,-2.223,1.0,-10.26,1923.0,-12.45,-6.721,2.0,-16.44,1717.0,6.9948,0.0,0.0
2020-02-22 03:30:00+00:00,22.12,22.12,285.3,16.55,-8.49,-5.163,1124.0,-10.43,355.0,-12.95,-10.64,1932.0,-16.85,219.0,6.507,0.1,0.1
2020-02-23 03:30:00+00:00,25.7,25.7,251.4,30.19,-4.317,-0.779,0.0,-9.18,439.0,-7.69,-1.003,2336.0,-12.96,313.0,9.3416,0.0,0.0
2020-02-24 03:30:00+00:00,17.32,17.32,250.0,26.62,-0.267,2.426,1235.0,-4.63,2311.0,-1.868,-0.462,727.0,-4.725,2309.0,9.6985,0.0,0.0
2020-02-25 03:30:00+00:00,10.21,10.21,126.3,44.71,-0.645,1.519,1517.0,-4.259,49.0,-0.811,0.703,1441.0,-4.261,49.0,6.6221,0.1,0.0
2020-02-26 03:30:00+00:00,7.91,7.91,224.3,79.0,-0.438,1.755,1304.0,-3.759,710.0,-0.495,1.757,1304.0,-3.761,710.0,6.2166,0.0,0.0
2020-02-27 03:30:00+00:00,6.68,6.68,17.74,63.55,0.399,4.432,1438.0,-2.485,2359.0,-0.434,1.866,1015.0,-2.997,2219.0,5.9712,0.0,0.0
2020-02-28 03:30:00+00:00,23.47,23.47,71.9,40.71,-1.475,3.591,842.0,-4.629,421.0,-3.05,-0.868,1439.0,-5.557,2323.0,8.1624,0.1,0.1
2020-02-29 03:30:00+00:00,34.45,34.45,195.0,80.6,-0.44,2.222,1507.0,-4.366,9.0,-1.597,1.163,1117.0,-5.09,20.0,6.8096,0.6,1.9
2020-03-01 03:30:00+00:00,11.07,11.07,227.3,67.5,0.141,5.045,1012.0,-4.495,651.0,-3.203,-1.341,2342.0,-8.75,1140.0,12.09,0.0,0.0
2020-03-02 03:30:00+00:00,26.49,26.49,55.09,29.48,-1.863,-0.04,17.0,-3.728,1808.0,-3.77,-1.55,0.0,-8.23,1159.0,3.6072,0.0,0.7
2020-03-03 03:30:00+00:00,33.09,33.09,355.7,18.99,-3.336,-0.087,1320.0,-8.18,2220.0,-5.019,-2.265,4.0,-10.94,2359.0,10.134,0.0,7.5
2020-03-04 03:30:00+00:00,21.55,21.55,221.5,50.08,-0.924,2.43,1735.0,-9.69,237.0,-2.109,2.433,1735.0,-11.87,237.0,2.8699,1.7,1.5
2020-03-05 03:30:00+00:00,29.18,29.18,156.8,58.54,2.223,5.839,1453.0,0.524,501.0,2.052,5.844,1453.0,0.524,501.0,1.3648,17.8,15.6
2020-03-06 03:30:00+00:00,43.98,43.98,244.1,23.29,0.894,2.833,956.0,-1.121,1815.0,-1.171,0.838,2.0,-3.414,1843.0,7.5377,0.0,0.1
2020-03-07 03:30:00+00:00,28.3,28.3,288.2,14.97,-1.861,1.43,1030.0,-6.404,2346.0,-5.868,-2.371,34.0,-10.15,2346.0,8.6081,0.0,0.0
2020-03-08 03:30:00+00:00,27.78,27.78,22.58,36.49,-4.429,-2.183,2354.0,-8.15,534.0,-6.987,-2.184,2354.0,-11.06,534.0,5.3699,0.1,1.3
2020-03-09 03:30:00+00:00,31.41,31.41,328.4,30.64,-2.341,1.155,1202.0,-5.631,2230.0,-5.309,-1.982,151.0,-10.01,2226.0,12.504,0.0,0.6
2020-03-10 03:30:00+00:00,22.14,22.14,295.3,19.1,-5.506,-1.753,935.0,-12.5,2359.0,-10.47,-3.419,452.0,-16.74,2353.0,13.902,0.1,0.1
2020-03-11 03:30:00+00:00,13.7,13.7,310.1,83.0,-6.047,-1.289,1121.0,-12.84,559.0,-11.01,-2.824,2352.0,-16.84,559.0,10.437,0.0,0.0
2020-03-12 03:30:00+00:00,15.09,15.09,246.1,76.7,0.361,2.061,1130.0,-2.452,0.0,0.337,2.063,1130.0,-2.943,0.0,3.9237,1.9,1.2
2020-03-13 03:30:00+00:00,12.64,12.64,351.8,36.47,-2.265,0.491,1225.0,-4.428,2342.0,-4.784,-1.84,18.0,-8.98,2350.0,6.9772,0.0,0.0
2020-03-14 03:30:00+00:00,13.78,13.78,288.0,68.44,-1.673,2.383,1224.0,-5.166,656.0,-7.64,-3.381,2340.0,-10.26,1509.0,14.361,0.1,0.0
2020-03-15 03:30:00+00:00,34.21,34.21,216.7,52.32,1.323,4.262,1324.0,-1.652,2.0,0.053,3.5,1109.0,-4.713,2345.0,10.822,10.1,10.1
2020-03-16 03:30:00+00:00,25.32,25.32,311.8,50.9,-0.068,4.69,1508.0,-2.788,2257.0,-4.595,-2.171,1219.0,-7.51,2241.0,11.857,0.1,0.2
2020-03-17 03:30:00+00:00,14.33,14.33,56.0,37.94,-3.391,-1.586,1444.0,-6.706,2156.0,-8.64,-6.216,118.0,-12.19,940.0,8.1774,0.0,0.0
2020-03-18 03:30:00+00:00,22.1,22.1,128.7,67.97,-2.311,0.591,2355.0,-7.27,347.0,-6.398,0.592,2355.0,-14.04,351.0,12.619,0.0,0.0
2020-03-19 03:30:00+00:00,27.08,27.08,243.9,69.32,0.66,4.162,1302.0,-3.656,2336.0,-1.063,3.917,1247.0,-7.99,2207.0,9.948,15.1,13.1
2020-03-20 03:30:00+00:00,14.42,14.42,296.5,26.95,-2.45,3.156,1221.0,-6.534,630.0,-7.75,-5.847,1157.0,-9.38,505.0,14.204,0.0,0.0
2020-03-21 03:30:00+00:00,31.14,31.14,169.7,40.27,0.551,4.538,2351.0,-5.463,0.0,-0.778,4.542,2351.0,-7.52,0.0,4.6849,19.1,19.1
2020-03-22 03:30:00+00:00,35.49,35.49,262.3,29.07,1.239,5.173,1058.0,-4.259,2357.0,-1.351,5.146,24.0,-10.4,2349.0,11.414,3.6,4.2
2020-03-23 03:30:00+00:00,26.72,26.72,296.2,16.9,-4.981,-1.854,1229.0,-8.34,2358.0,-11.48,-9.22,220.0,-13.93,904.0,9.4656,0.0,0.0
2020-03-24 03:30:00+00:00,13.55,13.55,294.0,24.0,-3.15,3.49,1305.0,-10.19,540.0,-10.17,-6.685,2351.0,-13.96,1559.0,17.077,0.0,0.0
2020-03-25 03:30:00+00:00,47.1,47.1,83.3,9.97,0.671,1.363,2344.0,-0.047,1915.0,0.672,1.364,2344.0,-0.047,1915.0,0.0,14.0,11.2
2020-03-26 03:30:00+00:00,27.78,27.78,353.5,24.47,1.12,3.887,1305.0,-2.99,2149.0,-1.662,1.868,102.0,-5.847,2343.0,15.736,1.5,0.8
2020-03-27 03:30:00+00:00,21.58,21.58,62.62,41.78,-1.52,0.658,1946.0,-6.27,401.0,-4.706,-0.057,2356.0,-11.56,848.0,8.7829,0.4,0.8
2020-03-28 03:30:00+00:00,41.01,41.01,139.6,69.1,1.336,3.766,1428.0,0.02,15.0,1.053,3.769,1428.0,-1.849,2345.0,3.81,25.6,22.5
2020-03-29 03:30:00+00:00,20.53,20.53,277.1,43.34,0.95,4.497,1301.0,-0.88,2326.0,-2.081,-0.317,839.0,-3.843,2359.0,11.323,0.0,0.0
2020-03-30 03:30:00+00:00,31.06,31.06,0.202,11.14,0.97,5.925,1348.0,-2.49,2344.0,-3.427,-1.599,1209.0,-4.4,2235.0,17.404,0.0,0.9
2020-03-31 03:30:00+00:00,33.72,33.72,8.2,15.14,0.557,3.572,1045.0,-2.455,227.0,-1.821,0.591,2349.0,-4.432,215.0,6.9377,2.1,1.0
2020-04-01 03:30:00+00:00,18.99,18.99,63.18,37.21,2.221,5.442,1829.0,0.758,726.0,1.827,5.186,2235.0,0.433,37.0,10.365,2.3,1.4
2020-04-02 03:30:00+00:00,29.85,29.85,67.41,11.98,6.274,8.27,1358.0,3.456,2349.0,5.795,7.23,1321.0,3.459,2349.0,9.034,1.4,1.1
2020-04-03 03:30:00+00:00,32.57,32.57,63.03,10.55,5.591,8.6,1414.0,3.229,157.0,4.693,6.082,1317.0,2.893,2332.0,12.745,0.0,0.0
2020-04-04 03:30:00+00:00,39.59,39.59,49.13,12.45,4.24,8.64,1134.0,-0.081,2339.0,1.14,4.264,527.0,-4.778,2322.0,15.098,0.3,0.5
2020-04-05 03:30:00+00:00,19.91,19.91,60.53,20.12,1.263,4.168,1503.0,-0.282,404.0,-4.394,-2.492,1905.0,-6.396,1047.0,9.0116,0.0,0.0
2020-04-06 03:30:00+00:00,8.31,8.31,79.6,71.6,0.179,4.068,1058.0,-3.157,2317.0,-2.541,-0.639,1614.0,-5.826,1101.0,9.0112,0.0,0.0
2020-04-07 03:30:00+00:00,19.18,19.18,219.1,34.95,-0.028,3.001,1004.0,-3.957,227.0,-1.272,0.827,1936.0,-4.162,227.0,13.266,0.0,0.0
2020-04-08 03:30:00+00:00,23.89,23.89,264.3,25.0,0.465,4.303,1159.0,-3.327,2358.0,-3.911,0.558,25.0,-7.99,2331.0,13.377,0.0,0.0
2020-04-09 03:30:00+00:00,19.67,19.67,239.1,46.23,-0.667,3.395,1111.0,-5.53,308.0,-4.53,-0.273,1827.0,-8.22,1012.0,13.931,0.0,0.0
2020-04-10 03:30:00+00:00,12.21,12.21,282.0,56.58,0.116,6.73,1328.0,-5.732,529.0,-4.944,-1.312,916.0,-13.53,1628.0,17.689,0.0,0.0
2020-04-11 03:30:00+00:00,27.67,27.67,135.8,46.64,1.234,4.948,1328.0,-1.921,18.0,0.361,4.952,1328.0,-3.943,18.0,3.3995,19.7,17.9
2020-04-12 03:30:00+00:00,25.49,25.49,208.7,25.08,2.486,4.597,1108.0,0.925,2330.0,0.782,2.031,404.0,-1.684,1956.0,17.071,0.0,0.0
2020-04-13 03:30:00+00:00,15.74,15.74,244.0,30.92,2.492,6.3,1140.0,-2.586,2358.0,0.329,2.359,1059.0,-3.289,2358.0,19.111,0.0,0.0
2020-04-14 03:30:00+00:00,8.35,8.35,219.8,56.01,2.044,5.526,1314.0,-2.72,6.0,0.764,2.754,2308.0,-3.385,6.0,17.531,0.1,0.0
2020-04-15 03:30:00+00:00,18.78,18.78,199.3,56.6,3.97,5.94,1122.0,0.953,2359.0,3.843,5.945,1122.0,0.954,2359.0,3.196,7.9,7.6
2020-04-16 03:30:00+00:00,7.94,7.94,80.2,75.8,1.811,4.432,800.0,-0.085,40.0,1.72,4.436,800.0,-0.085,40.0,6.9243,15.1,12.0
2020-04-17 03:30:00+00:00,20.31,20.31,285.4,31.01,1.811,6.619,851.0,-1.35,2228.0,0.062,3.263,826.0,-6.229,2349.0,12.658,1.7,1.3
2020-04-18 03:30:00+00:00,13.85,13.85,279.6,42.71,1.256,7.11,1345.0,-3.622,2335.0,-5.501,-1.62,627.0,-13.37,1646.0,21.071,0.0,0.0
2020-04-19 03:30:00+00:00,14.15,14.15,244.6,46.5,1.641,6.307,1027.0,-3.856,12.0,-4.251,-0.645,2358.0,-8.74,1613.0,20.064,0.0,0.0
2020-04-20 03:30:00+00:00,46.55,46.55,69.22,26.59,2.008,4.101,2140.0,-0.148,829.0,1.938,3.752,2026.0,-0.147,829.0,1.7375,32.2,34.0
2020-04-21 03:30:00+00:00,23.42,23.42,276.1,35.0,2.414,6.637,1041.0,0.591,523.0,0.81,2.56,1739.0,-1.037,1027.0,15.852,0.0,0.1
2020-04-22 03:30:00+00:00,17.74,17.74,315.8,44.9,2.3,8.11,1359.0,-1.017,2235.0,-0.355,1.474,1238.0,-2.33,2235.0,10.746,0.6,0.4
2020-04-23 03:30:00+00:00,20.65,20.65,130.4,60.91,1.443,3.49,1246.0,-3.459,412.0,0.647,2.903,2225.0,-3.522,412.0,17.808,9.4,8.1
2020-04-24 03:30:00+00:00,27.26,27.26,226.0,13.97,1.827,4.664,1036.0,-0.517,2359.0,-0.857,2.029,0.0,-5.607,1302.0,16.787,0.5,0.4
2020-04-25 03:30:00+00:00,23.0,23.0,222.0,16.54,2.872,6.436,1131.0,-0.954,10.0,0.852,2.049,2124.0,-1.846,36.0,21.764,0.1,0.0
2020-04-26 03:30:00+00:00,24.86,24.86,327.8,59.11,3.943,10.64,1340.0,-0.245,2355.0,0.02,3.948,952.0,-4.425,1602.0,20.06,15.5,12.4
2020-04-27 03:30:00+00:00,17.19,17.19,275.0,19.3,3.946,10.74,1140.0,-0.88,122.0,-2.523,0.233,638.0,-9.35,1635.0,22.671,0.0,0.0
2020-04-28 03:30:00+00:00,11.3,11.3,73.7,55.77,1.501,3.102,2359.0,-1.921,54.0,-0.347,1.603,2232.0,-3.238,323.0,5.9316,0.0,0.0
2020-04-29 03:30:00+00:00,38.77,38.77,56.67,12.08,2.655,4.571,1114.0,0.987,2327.0,-4.745,-2.611,3.0,-7.13,1254.0,6.5774,0.0,0.3
2020-04-30 03:30:00+00:00,35.34,35.34,19.63,26.0,3.676,8.88,1222.0,-0.288,2043.0,-3.669,-2.072,2106.0,-5.512,620.0,20.52,0.0,2.6
2020-05-01 03:30:00+00:00,13.45,13.45,323.4,28.33,7.55,16.37,1241.0,-2.324,430.0,-3.478,-0.712,1923.0,-6.732,1612.0,23.386,0.0,0.0
2020-05-02 03:30:00+00:00,12.2,12.2,245.6,80.0,6.495,15.29,942.0,1.151,224.0,-1.092,1.999,1334.0,-6.949,1018.0,20.64,0.0,0.0
2020-05-03 03:30:00+00:00,29.45,29.45,162.3,16.7,5.27,6.476,1640.0,3.934,0.0,4.902,6.482,1640.0,1.687,0.0,3.5808,15.0,14.0
2020-05-04 03:30:00+00:00,25.54,25.54,32.73,73.0,4.826,8.51,1337.0,1.524,2142.0,4.806,8.51,1337.0,1.525,2142.0,3.8844,17.7,18.9
2020-05-05 03:30:00+00:00,18.27,18.27,315.3,82.3,4.913,12.46,1221.0,1.061,450.0,0.883,2.814,1114.0,-1.931,1411.0,22.049,1.3,0.8
2020-05-06 03:30:00+00:00,29.3,29.3,115.5,53.3,3.012,5.573,1134.0,1.826,2213.0,2.959,5.578,1134.0,1.671,5.0,4.2578,33.8,31.0
2020-05-07 03:30:00+00:00,29.23,29.23,241.1,34.13,2.366,4.799,1326.0,0.92,2131.0,1.453,4.031,1213.0,-1.021,2239.0,8.4652,0.0,0.0
2020-05-08 03:30:00+00:00,24.07,24.07,217.4,81.9,2.48,6.309,1052.0,0.959,140.0,0.258,2.063,2359.0,-1.276,402.0,11.509,8.5,7.1
2020-05-09 03:30:00+00:00,25.01,25.01,274.1,65.55,3.602,6.406,1251.0,1.893,10.0,2.497,5.436,806.0,0.364,1436.0,14.279,1.7,1.3
2020-05-10 03:30:00+00:00,24.93,24.93,197.1,50.45,4.183,7.01,1849.0,2.262,307.0,3.743,7.02,1849.0,1.721,414.0,6.6089,8.6,7.3
2020-05-11 03:30:00+00:00,40.26,40.26,219.7,19.59,2.999,4.168,1622.0,2.095,2307.0,1.159,3.531,16.0,-1.395,719.0,7.6075,0.4,0.5
2020-05-12 03:30:00+00:00,21.41,21.41,228.6,15.77,3.875,7.4,1357.0,0.89,2205.0,2.185,3.68,1506.0,0.766,2205.0,21.463,0.0,0.0
2020-05-13 03:30:00+00:00,19.07,19.07,140.5,64.52,3.921,6.678,1618.0,1.994,101.0,3.924,6.684,1618.0,1.996,101.0,2.7595,17.7,15.5
2020-05-14 03:30:00+00:00,26.99,26.99,241.5,15.98,3.101,5.57,1305.0,1.359,2341.0,2.178,3.988,1304.0,-1.283,2203.0,9.0883,0.1,0.0
2020-05-15 03:30:00+00:00,28.97,28.97,253.6,11.62,3.13,6.536,1142.0,0.618,1926.0,-1.033,1.787,2355.0,-4.935,1138.0,19.886,1.4,1.0
2020-05-16 03:30:00+00:00,19.84,19.84,296.2,18.61,5.516,11.84,1210.0,1.39,2343.0,2.135,4.483,926.0,0.237,2328.0,18.585,0.1,0.0
2020-05-17 03:30:00+00:00,9.42,9.42,251.9,85.7,4.759,8.17,1758.0,0.02,153.0,1.948,4.135,2109.0,-0.877,153.0,16.924,0.0,0.0
2020-05-18 03:30:00+00:00,10.82,10.82,49.49,83.0,5.591,13.04,1209.0,1.554,348.0,1.808,4.397,2125.0,-2.778,1059.0,22.965,1.9,1.3
2020-05-19 03:30:00+00:00,9.48,9.48,108.2,57.08,3.717,5.066,1440.0,2.597,2312.0,3.232,3.906,1440.0,2.21,2300.0,6.5468,1.0,0.5
2020-05-20 03:30:00+00:00,16.83,16.83,1.531,62.99,4.863,9.11,1714.0,2.694,215.0,1.984,3.709,47.0,-0.937,1742.0,18.783,0.0,0.1
2020-05-21 03:30:00+00:00,15.2,15.2,301.0,46.98,6.939,13.91,1255.0,1.423,444.0,1.496,3.717,1640.0,-3.091,1410.0,23.95,0.0,0.0
2020-05-22 03:30:00+00:00,16.7,16.7,252.8,23.61,6.691,12.39,1200.0,3.665,4.0,3.299,5.616,759.0,1.374,1141.0,17.154,0.7,0.3
2020-05-23 03:30:00+00:00,21.07,21.07,271.2,27.88,7.21,13.38,1217.0,0.591,2358.0,2.622,8.34,1050.0,-4.294,2147.0,18.318,1.5,1.2
2020-05-24 03:30:00+00:00,24.04,24.04,299.9,15.15,5.303,9.97,1446.0,0.027,410.0,-2.558,-0.184,2028.0,-6.186,1107.0,25.465,0.0,0.0
2020-05-25 03:30:00+00:00,17.33,17.33,283.6,33.66,6.734,14.51,1032.0,-0.114,331.0,-0.136,3.245,1250.0,-4.826,1022.0,25.163,0.0,0.0
2020-05-26 03:30:00+00:00,14.4,14.4,240.2,38.27,5.17,8.87,912.0,0.624,304.0,2.288,4.184,1355.0,-0.517,409.0,21.561,0.0,0.0
2020-05-27 03:30:00+00:00,10.24,10.24,232.6,26.03,5.799,7.87,1142.0,2.792,401.0,5.361,7.27,1623.0,2.26,352.0,7.2165,0.0,0.0
2020-05-28 03:30:00+00:00,9.81,9.81,134.6,72.4,7.14,13.51,1200.0,4.262,221.0,6.695,12.33,1028.0,4.265,221.0,11.492,6.0,5.0
2020-05-29 03:30:00+00:00,10.95,10.95,130.4,83.6,6.235,11.44,1603.0,3.531,420.0,5.747,9.28,1441.0,3.534,420.0,11.996,0.3,0.2
2020-05-30 03:30:00+00:00,11.67,11.67,238.6,29.07,7.91,10.87,829.0,4.596,227.0,7.27,9.22,2224.0,4.581,227.0,13.152,0.0,0.0
2020-05-31 03:30:00+00:00,17.05,17.05,243.1,17.93,8.82,11.08,1041.0,6.629,2107.0,8.83,11.09,1041.0,6.634,2108.0,9.9019,0.1,0.0
2020-06-01 03:30:00+00:00,6.965,6.965,168.2,54.13,7.6,9.2,1315.0,6.033,440.0,7.61,9.2,1315.0,6.038,440.0,9.6928,0.5,0.1
2020-06-02 03:30:00+00:00,17.45,17.45,134.7,21.39,7.43,9.58,458.0,6.402,1822.0,7.44,9.59,458.0,6.407,1822.0,4.5851,22.2,18.7
2020-06-03 03:30:00+00:00,23.17,23.17,116.2,28.33,6.641,9.04,1150.0,4.362,1821.0,6.647,9.05,1150.0,4.366,1821.0,3.9314,6.9,5.4
2020-06-04 03:30:00+00:00,21.18,21.18,173.8,36.22,5.961,8.17,1311.0,4.43,126.0,5.552,8.12,2355.0,4.433,126.0,14.866,4.9,4.0
2020-06-05 03:30:00+00:00,7.12,7.12,171.2,51.84,6.642,8.21,54.0,4.765,2358.0,6.648,8.22,54.0,4.769,2358.0,5.6794,5.8,4.5
2020-06-06 03:30:00+00:00,5.301,5.301,161.4,49.68,6.684,10.39,1527.0,3.428,237.0,6.254,9.18,1804.0,3.431,237.0,19.224,0.3,0.0
2020-06-07 03:30:00+00:00,7.87,7.87,207.0,49.95,7.86,10.77,1433.0,5.731,2041.0,7.74,10.32,1307.0,5.735,2041.0,10.247,5.2,4.0
2020-06-08 03:30:00+00:00,12.24,12.24,80.5,19.58,8.31,10.91,1735.0,6.1,235.0,8.31,10.92,1735.0,6.105,235.0,2.7537,30.9,26.1
2020-06-09 03:30:00+00:00,11.39,11.39,126.0,77.8,7.01,8.67,0.0,5.965,629.0,7.01,8.68,0.0,5.971,629.0,10.025,0.3,0.1
2020-06-10 03:30:00+00:00,15.66,15.66,291.2,41.46,7.73,14.14,1355.0,4.463,415.0,4.868,6.742,938.0,2.138,1409.0,20.302,2.0,1.2
2020-06-11 03:30:00+00:00,8.44,8.44,117.4,91.8,7.77,15.77,1550.0,3.9,2340.0,5.643,8.33,1210.0,1.92,1834.0,20.44,3.4,2.7
2020-06-12 03:30:00+00:00,10.3,10.3,125.0,36.17,5.8,7.32,1329.0,3.329,314.0,5.591,7.22,639.0,3.099,7.0,19.347,0.0,0.0
2020-06-13 03:30:00+00:00,10.12,10.12,137.3,35.51,7.82,11.2,1112.0,6.007,308.0,7.61,9.94,1014.0,6.012,308.0,18.276,0.7,0.3
2020-06-14 03:30:00+00:00,5.108,5.108,120.4,33.28,9.84,11.61,1144.0,8.41,206.0,9.85,11.62,1144.0,8.41,206.0,8.1426,5.6,4.7
2020-06-15 03:30:00+00:00,10.19,10.19,81.9,52.41,11.37,15.5,1329.0,9.34,418.0,11.3,15.51,1329.0,9.25,2313.0,5.2171,19.2,16.5
2020-06-16 03:30:00+00:00,10.39,10.39,101.4,72.2,9.77,10.85,1003.0,8.98,354.0,9.34,10.22,2034.0,8.0,1234.0,10.979,2.7,2.1
2020-06-17 03:30:00+00:00,13.41,13.41,278.9,42.14,13.97,21.94,1010.0,8.64,2359.0,7.3,10.77,336.0,0.452,1019.0,25.077,0.0,0.0
2020-06-18 03:30:00+00:00,13.67,13.67,242.7,34.76,11.95,16.61,1214.0,6.301,432.0,7.6,11.22,2012.0,3.945,1511.0,24.418,0.0,0.0
2020-06-19 03:30:00+00:00,17.6,17.6,250.1,16.9,11.84,16.85,1307.0,9.27,12.0,9.96,12.23,1306.0,8.79,2139.0,21.116,0.0,0.0
2020-06-20 03:30:00+00:00,12.68,12.68,149.3,78.4,12.16,19.01,759.0,8.31,2349.0,9.91,12.89,751.0,7.48,626.0,21.662,0.0,0.0
2020-06-21 03:30:00+00:00,18.42,18.42,81.9,15.16,9.82,13.07,1636.0,7.51,2344.0,7.88,9.56,800.0,4.6,2151.0,12.932,0.0,0.0
2020-06-22 03:30:00+00:00,13.55,13.55,111.4,28.28,8.88,10.8,1251.0,5.973,427.0,6.604,8.87,2345.0,3.529,322.0,23.267,0.0,0.0
2020-06-23 03:30:00+00:00,8.14,8.14,113.7,19.69,10.35,11.91,2355.0,9.08,3.0,10.26,11.92,2355.0,8.62,8.0,7.0906,0.1,0.0
2020-06-24 03:30:00+00:00,5.166,5.166,149.5,58.99,12.32,19.4,1627.0,11.11,18.0,12.26,16.65,1626.0,11.12,18.0,11.826,1.1,0.4
2020-06-25 03:30:00+00:00,7.13,7.13,100.7,20.65,13.75,15.21,1648.0,12.28,629.0,13.76,15.23,1648.0,12.29,629.0,9.3051,0.4,0.3
2020-06-26 03:30:00+00:00,3.437,3.437,168.8,54.83,13.29,15.96,803.0,12.04,133.0,13.3,15.97,803.0,12.05,133.0,7.1495,0.5,0.1
2020-06-27 03:30:00+00:00,9.09,9.09,218.1,50.79,13.23,15.65,1055.0,11.41,2327.0,13.02,15.3,1055.0,11.31,2327.0,13.418,0.7,0.5
2020-06-28 03:30:00+00:00,8.53,8.53,235.8,58.85,15.23,23.92,1231.0,10.47,2344.0,13.19,17.17,721.0,10.48,2344.0,19.707,0.6,0.4
2020-06-29 03:30:00+00:00,5.508,5.508,108.4,28.68,13.02,15.74,1641.0,10.91,615.0,12.86,15.06,1935.0,10.92,616.0,7.6185,0.0,0.0
2020-06-30 03:30:00+00:00,16.5,16.5,81.7,11.48,13.7,15.18,1110.0,12.58,2201.0,13.69,15.0,13.0,12.59,2201.0,5.5696,5.7,4.4
2020-07-01 03:30:00+00:00,9.1,9.1,132.9,72.3,14.43,16.81,1258.0,12.75,30.0,14.44,16.82,1258.0,12.76,30.0,6.5311,11.1,9.1
2020-07-02 03:30:00+00:00,9.41,9.41,234.7,39.82,14.9,17.89,820.0,12.64,129.0,14.88,17.91,820.0,12.66,129.0,8.4902,1.3,0.8